Regional Weather Roundup
Issued by NWS Huntsville, AL

Home | Current Version | Previous Version | Text Only | Print | Product List | Glossary On
Versions: 1 2 3 4 5 6 7 8 9 10 11 12 13 14 15 16 17 18 19 20 21 22 23 24 25 26 27 28 29 30 31 32 33 34 35 36 37 38 39 40 41 42 43 44 45 46 47
000
ASUS44 KHUN 260010
RWRHUN

WEATHER ROUNDUP FOR THE TENNESSEE VALLEY
NATIONAL WEATHER SERVICE HUNTSVILLE AL
600 PM CST THU DEC 25 2014

ALZ001>004-260100-
NORTHWEST ALABAMA

CITY           SKY/WX    TMP DP  RH WIND       PRES   REMARKS
SHOALS AIRPORT CLEAR     40  34  79 SE6       30.18F
6HR MIN TEMP:  40; 6HR MAX TEMP:  53;

SHOALS TVA RES   N/A     43 N/A N/A MISG        N/A
$$

ALZ005>007-016-260100-
NORTH CENTRAL ALABAMA

CITY           SKY/WX    TMP DP  RH WIND       PRES   REMARKS
DECATUR AP     CLEAR     40  35  83 SE3       30.20F
6HR MIN TEMP:  40; 6HR MAX TEMP:  51;

HUNTSVILLE AP  CLEAR     45  36  70 E5        30.20S
6HR MIN TEMP:  44; 6HR MAX TEMP:  53;

HUN NWS/UAH      N/A     42  36  78 E1          N/A
MERIDIANVILLE  CLEAR     41  32  70 E3        30.19F
REDSTONE ARSN  CLEAR     43  37  81 E1        30.20S
VINEMONT AP    FAIR      38  34  85 CALM      30.22R
$$

ALZ008>010-260100-
NORTHEAST ALABAMA

CITY           SKY/WX    TMP DP  RH WIND       PRES   REMARKS
ALBERTVILLE    CLEAR     41  37  87 E5        30.19S
FORT PAYNE     CLEAR     37  32  81 CALM      30.21F
SCOTTSBORO AP  CLEAR     39  36  87 CALM      30.22S
VALLEY HEAD      N/A     37 N/A N/A MISG        N/A
$$

TNZ076-096-097-260100-
SOUTHEASTERN MIDDLE TENNESSEE

CITY           SKY/WX    TMP DP  RH WIND       PRES   REMARKS
TULLAHOMA      CLEAR     41  34  75 CALM      30.19F
WINCHESTER     CLEAR     37  34  87 CALM      30.20F
$$

...SURROUNDING SITES...

CITY           SKY/WX    TMP DP  RH WIND       PRES   REMARKS
ATLANTA        PTCLDY    46  34  62 NW3       30.23R
ANNISTON       CLEAR     40  36  86 CALM      30.23S
BIRMINGHAM     CLEAR     41  35  79 CALM      30.24R
CHATTANOOGA    CLEAR     43  35  73 CALM      30.22F
CORINTH        FAIR      45  34  65 SE5       30.15S
DALTON         CLEAR     39  36  87 CALM      30.22F
GADSDEN        CLEAR     39  34  81 CALM      30.22S
GOLDEN TRNGL   CLEAR     46  36  66 SE7       30.19
HALEYVILLE     FAIR      38  36  92 CALM      30.21R
JACKSON TN     CLEAR     46  32  58 S3        30.13S
LEWISBURG      FAIR      38  33  82 CALM      30.19F
MEMPHIS        PTCLDY    49  31  49 SE7       30.11S
MURFREESBORO   FAIR      43  34  70 S5        30.21F
NASHVILLE      CLEAR     42  34  73 SE8       30.19F
OXFORD MS      FAIR      45  36  70 SE5       30.16R
ROME           CLEAR     38  34  85 S3        30.22F
SAVANNAH       CLEAR     39  36  87 CALM      30.16S
TUPELO         CLEAR     46  35  65 MISG      30.18R
TUSCALOOSA     CLEAR     46  37  71 CALM      30.23R
$$

...GULF COAST WEATHER...

CITY           SKY/WX    TMP DP  RH WIND       PRES   REMARKS
GULFPORT       CLEAR     46  42  86 SE3       30.23R
PASCAGOULA     CLEAR     43  40  89 CALM      30.25R
MOBILE         PTCLDY    46  39  76 S6        30.25R
GULF SHORES    CLEAR     44  40  85 CALM      30.24F
DESTIN         CLEAR     48  42  80 CALM      30.24S
PANAMA CITY    CLEAR     48  47  93 N5        30.24S
APPALACHICOLA  CLEAR     51  45  79 CALM      30.23F
$$




USA.gov is the U.S. government's official web portal to all federal, state and local government web resources and services.